Weather History for Toronto Pearson Int'L. Ont., Ontario

Change the Weather History Date:

Thursday, November 1, 2012

  Actual Average Record
Temperature  
Mean Temperature 43 °F -  
Max Temperature 45 °F 45 °F - ()
Min Temperature 39 °F 31 °F - ()
Degree Days  
Heating Degree Days 22    
Moisture  
Dew Point 37 °F    
Average Humidity 81    
Maximum Humidity 93    
Minimum Humidity 70    
Precipitation  
Precipitation 0.02 in 0.09 in - ()
Sea Level Pressure  
Sea Level Pressure 29.53 in    
Wind  
Wind Speed 11 mph ()    
Max Wind Speed 18 mph    
Max Gust Speed 24 mph    
Visibility 13.7 miles    
Events Rain    
T = Trace of Precipitation, MM = Missing Value Source: Averaged Metar Reports

Daily Weather History Graph

Daily Weather History Graph

Search for Another Location

Airport:

Trip Planner

Search our weather history database for the weather conditions in past years. The results will help you decide how hot, cold, wet, or windy it might be!

Date:

Astronomy

Nov. 01, 2012 Rise Set
Actual Time 7:54 AM EDT 6:08 PM EDT
Civil Twilight 7:25 AM EDT 6:38 PM EDT
Nautical Twilight 6:51 AM EDT 7:12 PM EDT
Astronomical Twilight 6:17 AM EDT 7:45 PM EDT
Moon 8:00 PM EDT (11/1) 10:30 AM EDT (11/1)
Length of Visible Light 11h 13m
Length of Day
10h 13m
Waning Gibbous, 93% of the Moon is Illuminated
Nov 1
Waning Gibbous
Nov 6
Last Quarter
Nov 13
New
Nov 20
First Quarter
Nov 28
Full

Hourly Weather History & Observations

Time (EDT) Temp. Windchill Dew Point Humidity Pressure Visibility Wind Dir Wind Speed Gust Speed Precip Events Conditions
12:00 AM 44.6 °F 39.2 °F 41.0 °F 87% 29.45 in 12.0 mi WNW 10.4 mph - N/A Rain Light Rain
1:00 AM 44.6 °F 39.7 °F 41.0 °F 87% 29.46 in 10.0 mi West 9.2 mph - N/A Rain Light Rain
2:00 AM 43 °F - 41 °F 89% 29.45 in 10 mi West 9.2 mph - - Rain Light Rain
2:00 AM 42.8 °F 37.0 °F 41.0 °F 93% 29.45 in 10.0 mi West 10.4 mph - N/A Rain Light Rain
3:00 AM 42.8 °F 36.2 °F 39.2 °F 87% 29.45 in 12.0 mi WNW 12.7 mph - N/A Rain Light Rain
4:00 AM 42.8 °F 36.2 °F 39.2 °F 87% 29.46 in 15.0 mi WNW 12.7 mph - N/A Rain Light Rain
4:30 AM 42.8 °F 36.6 °F - N/A% - 15.0 mi WNW 11.5 mph - N/A   Overcast
5:00 AM 42.8 °F 35.4 °F 37.4 °F 81% 29.47 in 15.0 mi WNW 15.0 mph - N/A   Overcast
5:37 AM 42.8 °F 35.1 °F - N/A% - 15.0 mi WNW 16.1 mph - N/A Rain Light Rain Showers
6:00 AM 42.8 °F 34.8 °F 37.4 °F 81% 29.48 in 15.0 mi NW 17.3 mph - N/A Rain Light Rain Showers
7:00 AM 42.8 °F 36.2 °F 37.4 °F 81% 29.49 in 12.0 mi WNW 12.7 mph - N/A Rain Light Rain
8:00 AM 42 °F - 37 °F 77% 29.50 in 12 mi WNW 11.5 mph - - Rain Light Rain
8:00 AM 41.0 °F 33.9 °F 37.4 °F 87% 29.50 in 12.0 mi WNW 12.7 mph - N/A Rain Light Rain
9:00 AM 42.8 °F 35.8 °F 37.4 °F 81% 29.52 in 12.0 mi WNW 13.8 mph 19.6 mph N/A Rain Light Rain
10:00 AM 42.8 °F 35.8 °F 37.4 °F 81% 29.52 in 15.0 mi WNW 13.8 mph 19.6 mph N/A Rain Light Rain
11:00 AM 42.8 °F 37.5 °F 39.2 °F 87% 29.53 in 15.0 mi WNW 9.2 mph - N/A Rain Light Rain
12:00 PM 42.8 °F 36.6 °F 37.4 °F 81% 29.54 in 15.0 mi WNW 11.5 mph - N/A Rain Light Rain
12:54 PM 44.6 °F 38.1 °F - N/A% - 15.0 mi West 13.8 mph - N/A   Overcast
1:00 PM 44.6 °F 37.8 °F 37.4 °F 76% 29.53 in 15.0 mi West 15.0 mph - N/A   Overcast
1:35 PM 44.6 °F 38.4 °F - N/A% - 15.0 mi West 12.7 mph 18.4 mph N/A Rain Light Rain Showers
2:00 PM 44 °F - 37 °F 70% 29.53 in 15 mi WNW 17.3 mph - - Rain Light Rain Showers
2:00 PM 44.6 °F 37.8 °F 37.4 °F 76% 29.53 in 15.0 mi WNW 15.0 mph 24.2 mph N/A Rain Light Rain Showers
3:00 PM 44.6 °F 36.9 °F 35.6 °F 71% 29.53 in 15.0 mi WNW 18.4 mph - N/A Rain Light Rain Showers
4:00 PM 42.8 °F 35.1 °F 35.6 °F 76% 29.55 in 15.0 mi WNW 16.1 mph 23.0 mph N/A Rain Light Rain Showers
5:00 PM 42.8 °F 35.1 °F 35.6 °F 76% 29.56 in 15.0 mi WNW 16.1 mph - N/A Rain Light Rain Showers
6:00 PM 42.8 °F 35.4 °F 35.6 °F 76% 29.58 in 15.0 mi WNW 15.0 mph - N/A Rain Light Rain Showers
7:00 PM 42.8 °F 36.2 °F 35.6 °F 76% 29.60 in 15.0 mi WNW 12.7 mph 20.7 mph N/A Rain Light Rain Showers
8:00 PM 41 °F - 36 °F 74% 29.62 in 12 mi WNW 12.7 mph - - Rain Light Rain
8:00 PM 41.0 °F 33.5 °F 35.6 °F 81% 29.62 in 12.0 mi WNW 13.8 mph - N/A Rain Light Rain
9:00 PM 41.0 °F 34.7 °F 35.6 °F 81% 29.62 in 12.0 mi WNW 10.4 mph - N/A Rain Light Rain
10:00 PM 41.0 °F 32.5 °F 33.8 °F 76% 29.63 in 15.0 mi NW 17.3 mph - N/A   Overcast
11:00 PM 39.2 °F 31.6 °F 33.8 °F 81% 29.64 in 15.0 mi WNW 12.7 mph 19.6 mph N/A   Overcast